CW6666 Weather Reports


Display with metric or nautical units.
time (UTC)temp
F
wind
direction
speed
MPH
gust
MPH
rain 1hr
in
rain 24hr
in
rain mn
in
humidity
%
barometer
mb
20180220195212 81 45 16.0 24.0 0.00 0.08 0.00 84 1007.2
20180220194713 81 58 21.0 24.0 0.00 0.08 0.00 85 1007.2
20180220194212 81 56 16.0 23.0 0.00 0.08 0.00 83 1007.1
20180220193712 81 52 19.0 24.0 0.00 0.08 0.00 84 1007.1
20180220193213 81 56 17.0 25.0 0.00 0.08 0.00 83 1007.1
20180220192712 81 51 20.0 25.0 0.00 0.08 0.00 83 1006.9
20180220192213 81 63 20.0 25.0 0.00 0.08 0.00 83 1006.9
20180220191712 81 46 19.0 24.0 0.00 0.08 0.00 84 1006.9
20180220191213 81 50 18.0 24.0 0.00 0.08 0.00 83 1006.7
20180220190712 81 49 19.0 24.0 0.00 0.08 0.00 84 1006.7
20180220190213 81 53 17.0 24.0 0.00 0.08 0.00 84 1006.7
20180220185712 81 59 20.0 26.0 0.00 0.08 0.00 82 1006.7
20180220185212 81 46 17.0 26.0 0.00 0.08 0.00 84 1006.7
20180220184712 81 61 17.0 23.0 0.00 0.08 0.00 84 1006.7
20180220184213 81 42 20.0 23.0 0.00 0.08 0.00 84 1006.8
20180220183713 81 51 18.0 23.0 0.00 0.08 0.00 84 1006.8
20180220183212 81 56 21.0 23.0 0.00 0.08 0.00 85 1006.8
20180220182713 81 40 21.0 23.0 0.00 0.08 0.00 85 1007.0
20180220182212 81 44 19.0 23.0 0.00 0.08 0.00 85 1007.0
20180220181712 81 44 19.0 24.0 0.00 0.08 0.00 85 1007.0
20180220181213 81 51 19.0 24.0 0.00 0.08 0.00 84 1006.9
20180220180712 81 51 20.0 24.0 0.00 0.08 0.00 84 1006.9
20180220180212 81 59 18.0 24.0 0.00 0.08 0.00 84 1006.9
20180220175712 81 46 22.0 26.0 0.00 0.08 0.00 84 1006.9
20180220175212 81 49 18.0 26.0 0.00 0.08 0.00 83 1006.9
20180220174712 81 63 22.0 25.0 0.00 0.08 0.00 84 1006.9
20180220174213 81 49 21.0 24.0 0.00 0.08 0.00 85 1006.8
20180220173712 81 46 16.0 24.0 0.00 0.08 0.00 86 1006.8
20180220173212 81 42 16.0 24.0 0.00 0.08 0.00 86 1006.8
20180220172712 81 58 20.0 23.0 0.00 0.08 0.00 86 1006.8
20180220172213 81 30 20.0 23.0 0.00 0.08 0.00 85 1006.8
20180220171712 81 44 19.0 23.0 0.00 0.08 0.00 85 1006.8
20180220171212 81 54 21.0 23.0 0.00 0.08 0.00 84 1006.8
20180220170712 81 49 20.0 23.0 0.00 0.08 0.00 85 1006.8
20180220170213 81 46 17.0 25.0 0.00 0.08 0.00 85 1006.8
20180220165713 81 38 19.0 25.0 0.00 0.08 0.00 86 1007.1
20180220165213 81 42 18.0 22.0 0.00 0.08 0.00 86 1007.1
20180220164712 81 34 19.0 22.0 0.00 0.08 0.00 86 1007.1
20180220164212 82 32 15.0 22.0 0.00 0.08 0.00 86 1007.2
20180220163713 81 53 18.0 22.0 0.00 0.08 0.00 85 1007.2
20180220163212 81 43 18.0 22.0 0.00 0.08 0.00 85 1007.2
20180220162713 81 53 19.0 22.0 0.00 0.08 0.00 86 1007.3
20180220162212 81 59 20.0 22.0 0.00 0.08 0.00 86 1007.3
20180220161712 81 54 17.0 22.0 0.00 0.08 0.00 86 1007.3
20180220161212 81 54 16.0 21.0 0.00 0.08 0.00 86 1007.5
20180220160713 81 49 15.0 21.0 0.00 0.08 0.00 86 1007.5
20180220160212 81 37 16.0 22.0 0.00 0.08 0.00 86 1007.5
20180220155712 81 49 17.0 22.0 0.00 0.08 0.00 86 1007.7
20180220155212 81 59 15.0 22.0 0.00 0.08 0.00 88 1007.7
20180220154712 81 46 18.0 21.0 0.00 0.08 0.00 88 1007.7
20180220154212 81 57 17.0 21.0 0.00 0.08 0.00 88 1007.7
20180220153713 81 48 14.0 21.0 0.00 0.08 0.00 88 1007.7
20180220153212 81 45 19.0 23.0 0.00 0.08 0.00 89 1007.7
20180220152712 81 51 16.0 23.0 0.00 0.08 0.00 89 1007.8
20180220152213 81 55 18.0 21.0 0.00 0.08 0.00 89 1007.8
20180220151712 80 57 13.0 23.0 0.00 0.08 0.00 88 1007.8
20180220151212 81 49 21.0 23.0 0.00 0.08 0.00 86 1007.9
20180220150713 82 53 17.0 23.0 0.00 0.08 0.00 84 1007.9
20180220150212 82 65 18.0 23.0 0.00 0.08 0.00 84 1007.9
20180220145713 82 49 22.0 23.0 0.00 0.08 0.00 84 1008.1
20180220145213 81 46 17.0 24.0 0.00 0.08 0.00 84 1008.1
20180220144712 82 59 20.0 24.0 0.00 0.08 0.00 85 1008.1
20180220144212 81 57 23.0 23.0 0.00 0.08 0.00 84 1008.2
20180220143713 81 50 20.0 22.0 0.00 0.08 0.00 85 1008.2
20180220143213 81 62 15.0 21.0 0.00 0.08 0.00 86 1008.2
20180220142712 82 51 17.0 21.0 0.00 0.08 0.00 85 1008.2
20180220142212 82 56 16.0 22.0 0.00 0.08 0.00 85 1008.2
20180220141713 82 54 18.0 22.0 0.00 0.08 0.00 85 1008.2
20180220141212 81 67 20.0 22.0 0.00 0.08 0.00 85 1008.2
20180220140713 81 53 22.0 23.0 0.00 0.08 0.00 85 1008.2
20180220140212 81 57 20.0 23.0 0.00 0.08 0.00 86 1008.2
20180220135712 81 37 16.0 21.0 0.00 0.08 0.08 86 1008.3
20180220135212 81 35 17.0 22.0 0.00 0.08 0.08 87 1008.3
20180220134712 82 49 16.0 22.0 0.00 0.08 0.08 86 1008.3
20180220134212 82 45 18.0 23.0 0.00 0.08 0.08 85 1008.3
20180220133713 82 57 19.0 23.0 0.00 0.08 0.08 84 1008.3
20180220133212 82 53 20.0 22.0 0.00 0.08 0.08 85 1008.3
20180220132712 82 55 17.0 22.0 0.00 0.08 0.08 85 1008.4
20180220132213 82 51 17.0 22.0 0.00 0.08 0.08 85 1008.4
20180220131712 82 52 15.0 22.0 0.00 0.08 0.08 85 1008.4
20180220131213 82 57 17.0 21.0 0.00 0.08 0.08 85 1008.6
20180220130713 82 42 17.0 22.0 0.00 0.08 0.08 85 1008.6
20180220130212 82 53 17.0 22.0 0.00 0.08 0.08 85 1008.6
20180220125713 81 60 21.0 21.0 0.00 0.08 0.08 85 1008.8
20180220125212 82 50 20.0 23.0 0.00 0.08 0.08 86 1008.8
20180220124712 82 41 16.0 25.0 0.00 0.08 0.08 85 1008.8
20180220124213 82 52 23.0 25.0 0.00 0.08 0.08 86 1008.8
20180220123712 81 55 19.0 22.0 0.00 0.08 0.08 85 1008.8
20180220123213 81 49 20.0 22.0 0.00 0.08 0.08 86 1008.8
20180220122713 81 50 15.0 19.0 0.00 0.08 0.08 87 1009.1
20180220122212 81 49 14.0 19.0 0.00 0.08 0.08 87 1009.1
20180220121712 81 54 16.0 18.0 0.00 0.08 0.08 87 1009.1
20180220121212 81 68 15.0 19.0 0.00 0.08 0.08 87 1009.1
20180220120713 81 56 14.0 19.0 0.00 0.08 0.08 87 1009.1
20180220120212 81 41 15.0 19.0 0.00 0.08 0.08 86 1009.1
20180220115712 81 56 16.0 20.0 0.00 0.08 0.08 86 1008.9
20180220115212 81 42 16.0 22.0 0.00 0.08 0.08 86 1008.9
20180220114712 81 55 17.0 22.0 0.00 0.08 0.08 85 1008.9
20180220114212 81 57 15.0 22.0 0.00 0.08 0.08 85 1008.9
20180220113715 81 58 18.0 22.0 0.00 0.08 0.08 85 1008.9
20180220113213 81 42 22.0 22.0 0.00 0.08 0.08 84 1008.9
20180220112713 81 44 18.0 22.0 0.00 0.08 0.08 84 1008.8
20180220112213 81 67 15.0 20.0 0.00 0.08 0.08 87 1008.8
20180220111713 81 50 17.0 21.0 0.00 0.08 0.08 86 1008.8
20180220111213 81 49 17.0 24.0 0.01 0.08 0.08 85 1008.7
20180220110712 81 58 19.0 24.0 0.01 0.08 0.08 84 1008.7
20180220110212 81 31 21.0 23.0 0.01 0.08 0.08 84 1008.7
20180220105712 81 40 16.0 22.0 0.01 0.08 0.08 85 1008.7
20180220105212 81 59 19.0 22.0 0.01 0.08 0.08 84 1008.7
20180220104713 81 45 19.0 22.0 0.01 0.08 0.08 84 1008.7
20180220104212 81 57 19.0 22.0 0.03 0.08 0.08 84 1008.6
20180220103713 81 40 14.0 20.0 0.03 0.08 0.08 86 1008.6
20180220103212 80 44 13.0 20.0 0.03 0.08 0.08 88 1008.6
20180220102712 80 34 14.0 20.0 0.03 0.08 0.08 88 1008.6
20180220102212 80 35 18.0 22.0 0.03 0.08 0.08 89 1008.6
20180220101712 80 46 16.0 22.0 0.03 0.08 0.08 90 1008.6
20180220101212 80 30 12.0 15.0 0.02 0.07 0.07 90 1008.7
20180220100712 80 40 12.0 16.0 0.02 0.07 0.07 91 1008.7
20180220100212 79 48 13.0 18.0 0.02 0.07 0.07 92 1008.7
20180220095713 79 63 14.0 23.0 0.02 0.07 0.07 92 1008.7
20180220095212 79 63 17.0 29.0 0.02 0.07 0.07 91 1008.7
20180220094712 79 44 17.0 29.0 0.02 0.07 0.07 90 1008.7
20180220094213 81 46 21.0 25.0 0.00 0.05 0.05 87 1008.4
20180220093713 81 45 14.0 18.0 0.01 0.05 0.05 88 1008.4
20180220093212 81 44 15.0 18.0 0.01 0.05 0.05 88 1008.4
20180220092713 81 38 12.0 18.0 0.01 0.05 0.05 88 1008.4
20180220092212 80 28 14.0 18.0 0.01 0.05 0.05 88 1008.4
20180220091713 80 43 13.0 17.0 0.01 0.05 0.05 89 1008.4
20180220091212 80 26 10.0 15.0 0.01 0.05 0.05 89 1008.3
20180220090712 80 27 9.0 15.0 0.01 0.05 0.05 89 1008.3
20180220090213 80 28 14.0 18.0 0.01 0.05 0.05 89 1008.3
20180220085712 80 21 10.0 18.0 0.01 0.05 0.05 90 1008.2
20180220085212 80 29 12.0 16.0 0.01 0.05 0.05 89 1008.2
20180220084712 80 35 13.0 24.0 0.01 0.05 0.05 90 1008.2
20180220084212 80 53 14.0 24.0 0.01 0.05 0.05 88 1008.0
20180220083712 81 48 15.0 17.0 0.00 0.04 0.04 88 1008.0
20180220083213 81 44 9.0 13.0 0.00 0.04 0.04 87 1008.0
20180220082712 81 51 9.0 13.0 0.00 0.04 0.04 88 1007.8
20180220082212 81 46 11.0 13.0 0.00 0.04 0.04 88 1007.8
20180220081713 81 47 9.0 13.0 0.00 0.04 0.04 88 1007.8
20180220081213 81 48 12.0 13.0 0.00 0.04 0.04 88 1007.8
20180220080712 81 46 10.0 12.0 0.00 0.04 0.04 88 1007.8
20180220080212 81 55 10.0 13.0 0.00 0.04 0.04 88 1007.8
20180220075712 81 49 7.0 14.0 0.00 0.04 0.04 88 1007.8
20180220075212 81 54 11.0 14.0 0.00 0.04 0.04 89 1007.8
20180220074712 81 53 11.0 12.0 0.00 0.04 0.04 89 1007.8
20180220074212 81 75 9.0 11.0 0.00 0.04 0.04 89 1007.7
20180220073712 81 74 8.0 12.0 0.00 0.04 0.04 89 1007.7
20180220073212 80 71 9.0 13.0 0.00 0.04 0.04 89 1007.7
20180220072712 80 69 10.0 14.0 0.00 0.04 0.04 88 1007.7
20180220072212 81 76 12.0 15.0 0.00 0.04 0.04 88 1007.7
20180220071712 81 83 13.0 16.0 0.00 0.04 0.04 86 1007.7
20180220071212 82 67 12.0 16.0 0.00 0.04 0.04 85 1007.5
20180220070712 82 59 13.0 16.0 0.00 0.04 0.04 83 1007.5
20180220070212 82 35 11.0 16.0 0.00 0.04 0.04 82 1007.5
20180220065712 82 43 14.0 17.0 0.00 0.04 0.04 84 1007.5
20180220065212 83 40 15.0 17.0 0.00 0.04 0.04 84 1007.5
20180220064712 82 38 13.0 16.0 0.00 0.04 0.04 83 1007.5
20180220064212 83 29 10.0 14.0 0.00 0.04 0.04 83 1007.3
20180220063712 83 40 11.0 14.0 0.00 0.04 0.04 83 1007.3
20180220063213 83 42 13.0 13.0 0.00 0.04 0.04 84 1007.3
20180220062712 83 40 9.0 12.0 0.00 0.04 0.04 84 1007.2
20180220062212 83 23 9.0 13.0 0.00 0.04 0.04 84 1007.2
20180220061712 83 39 10.0 13.0 0.00 0.04 0.04 83 1007.2
20180220061212 83 36 11.0 13.0 0.00 0.04 0.04 83 1007.2
20180220060712 83 32 11.0 13.0 0.00 0.04 0.04 84 1007.2
20180220060212 83 34 10.0 13.0 0.00 0.04 0.04 84 1007.2
20180220055712 83 41 11.0 12.0 0.00 0.04 0.04 84 1007.2
20180220055212 83 46 9.0 12.0 0.00 0.04 0.04 84 1007.2
20180220054712 83 34 9.0 13.0 0.00 0.04 0.04 84 1007.2
20180220054212 83 39 12.0 14.0 0.00 0.04 0.04 84 1007.2
20180220053712 83 44 11.0 14.0 0.00 0.04 0.04 83 1007.2
20180220053212 83 28 11.0 13.0 0.00 0.04 0.04 83 1007.2
20180220052712 83 36 11.0 14.0 0.00 0.04 0.04 83 1007.0
20180220052212 83 40 13.0 14.0 0.00 0.04 0.04 83 1007.0
20180220051712 83 55 8.0 13.0 0.00 0.04 0.04 83 1007.0
20180220051212 83 50 9.0 13.0 0.00 0.04 0.04 82 1007.1
20180220050712 83 56 10.0 14.0 0.00 0.04 0.04 82 1007.1
20180220050212 83 60 13.0 14.0 0.00 0.04 0.04 83 1007.1
20180220045712 83 54 12.0 16.0 0.00 0.04 0.04 84 1007.1
20180220045212 83 53 12.0 16.0 0.00 0.04 0.04 83 1007.1
20180220044712 83 58 15.0 15.0 0.00 0.04 0.04 83 1007.1
20180220044212 84 48 14.0 15.0 0.00 0.04 0.04 83 1007.2
20180220043713 83 46 11.0 15.0 0.00 0.04 0.04 83 1007.2
20180220043213 83 56 13.0 15.0 0.00 0.04 0.04 82 1007.2
20180220042712 83 59 12.0 13.0 0.00 0.04 0.04 82 1007.3
20180220042212 83 53 11.0 12.0 0.00 0.04 0.04 85 1007.3
20180220041712 83 45 7.0 12.0 0.00 0.04 0.04 86 1007.3
20180220041212 83 61 11.0 13.0 0.00 0.04 0.04 85 1007.7
20180220040712 82 54 11.0 13.0 0.00 0.04 0.04 86 1007.7
20180220040212 82 40 9.0 13.0 0.00 0.04 0.04 86 1007.7
20180220035712 82 39 12.0 13.0 0.01 0.04 0.04 87 1007.7
20180220035212 82 39 11.0 12.0 0.02 0.04 0.04 88 1007.7
20180220034712 82 40 10.0 11.0 0.03 0.04 0.04 89 1007.7
20180220034212 81 35 9.0 11.0 0.03 0.04 0.04 89 1007.8
20180220033712 81 48 9.0 11.0 0.03 0.04 0.04 90 1007.8
20180220033212 81 40 7.0 12.0 0.03 0.04 0.04 91 1007.8
20180220032712 80 42 10.0 12.0 0.03 0.04 0.04 91 1008.0
20180220032212 80 51 10.0 12.0 0.03 0.04 0.04 92 1008.0
20180220031712 79 37 9.0 11.0 0.03 0.04 0.04 91 1008.0
20180220031212 79 56 9.0 11.0 0.03 0.04 0.04 92 1008.2
20180220030712 78 51 10.0 11.0 0.03 0.04 0.04 90 1008.1
20180220030212 79 40 10.0 14.0 0.03 0.04 0.04 90 1008.2
20180220025712 79 44 10.0 17.0 0.02 0.03 0.03 89 1008.1
20180220025212 80 38 14.0 21.0 0.01 0.02 0.02 87 1008.2
20180220024712 81 28 17.0 21.0 0.00 0.01 0.01 82 1008.2
20180220024212 83 57 11.0 13.0 0.00 0.01 0.01 82 1008.2
20180220023712 83 60 9.0 12.0 0.00 0.01 0.01 81 1008.2
20180220023213 84 55 10.0 12.0 0.00 0.01 0.01 82 1008.2
20180220022712 83 46 9.0 13.0 0.00 0.01 0.01 82 1008.6
20180220022212 83 79 10.0 13.0 0.00 0.01 0.01 81 1008.6
20180220021712 83 39 9.0 14.0 0.00 0.01 0.01 82 1008.6
20180220021213 83 61 10.0 14.0 0.00 0.01 0.01 82 1008.7
20180220020712 83 52 12.0 14.0 0.00 0.01 0.01 82 1008.7
20180220020212 83 42 13.0 13.0 0.00 0.01 0.01 84 1008.7
20180220015715 83 44 6.0 11.0 0.01 0.01 0.01 85 1008.9
20180220015212 82 39 8.0 11.0 0.01 0.01 0.01 85 1008.9
20180220014712 82 41 7.0 11.0 0.01 0.01 0.01 84 1008.9
20180220014212 82 32 5.0 8.0 0.01 0.01 0.01 84 1009.3
20180220013712 82 35 6.0 9.0 0.01 0.01 0.01 86 1009.3
20180220013212 81 36 6.0 10.0 0.01 0.01 0.01 85 1009.3
20180220012712 81 33 7.0 10.0 0.01 0.01 0.01 87 1009.5
20180220012212 80 44 6.0 7.0 0.01 0.01 0.01 86 1009.4
20180220011712 80 40 5.0 12.0 0.01 0.01 0.01 88 1009.5
20180220011212 79 41 5.0 13.0 0.01 0.01 0.01 89 1009.7
20180220010712 79 44 10.0 20.0 0.01 0.01 0.01 89 1009.7
20180220010212 79 38 12.0 27.0 0.01 0.01 0.01 88 1009.7
20180220005712 80 43 17.0 27.0 0.00 0.00 0.00 84 1009.8
20180220005212 83 54 15.0 16.0 0.00 0.00 0.00 79 1009.9
20180220004712 84 51 13.0 15.0 0.00 0.00 0.00 79 1009.9
20180220004212 84 51 13.0 15.0 0.00 0.00 0.00 78 1009.9
20180220003712 84 33 12.0 15.0 0.00 0.00 0.00 78 1009.9
20180220003212 84 49 11.0 14.0 0.00 0.00 0.00 78 1009.9
20180220002712 84 55 12.0 14.0 0.00 0.00 0.00 78 1010.1
20180220002212 84 51 11.0 14.0 0.00 0.00 0.00 78 1010.1
20180220001712 84 41 13.0 14.0 0.00 0.00 0.00 78 1010.1
20180220001212 84 67 11.0 15.0 0.00 0.00 0.00 79 1010.3
20180220000712 84 43 13.0 15.0 0.00 0.00 0.00 79 1010.3
20180220000212 83 53 11.0 15.0 0.00 0.00 0.00 79 1010.3
20180219235712 83 46 13.0 15.0 0.00 0.00 0.00 78 1010.3
20180219235212 84 49 12.0 16.0 0.00 0.00 0.00 78 1010.3
20180219234712 84 54 12.0 16.0 0.00 0.00 0.00 78 1010.3
20180219234212 84 56 13.0 15.0 0.00 0.00 0.00 79 1010.1
20180219233712 83 61 11.0 14.0 0.00 0.00 0.00 80 1010.1
20180219233212 83 56 11.0 14.0 0.00 0.00 0.00 80 1010.1
20180219232712 83 80 10.0 15.0 0.00 0.00 0.00 80 1009.9
20180219232213 83 56 13.0 15.0 0.00 0.00 0.00 80 1009.9
20180219231712 83 64 13.0 15.0 0.00 0.00 0.00 78 1009.9
20180219231212 83 38 11.0 14.0 0.00 0.00 0.00 80 1009.9
20180219230713 83 54 13.0 14.0 0.00 0.00 0.00 80 1009.9
20180219230212 83 51 13.0 15.0 0.00 0.00 0.00 80 1009.9
20180219225712 83 64 13.0 15.0 0.00 0.00 0.00 79 1009.8
20180219225212 83 59 14.0 15.0 0.00 0.00 0.00 79 1009.8
20180219224712 83 73 11.0 15.0 0.00 0.00 0.00 80 1009.8
20180219224212 83 53 11.0 15.0 0.00 0.00 0.00 79 1009.8
20180219223712 83 52 13.0 16.0 0.00 0.00 0.00 79 1009.8
20180219223212 83 53 13.0 16.0 0.00 0.00 0.00 80 1009.8
20180219222712 83 51 11.0 15.0 0.00 0.00 0.00 81 1009.6
20180219222212 83 51 11.0 15.0 0.00 0.00 0.00 80 1009.6
20180219221712 83 55 10.0 16.0 0.00 0.00 0.00 81 1009.6
20180219221213 82 39 12.0 16.0 0.00 0.00 0.00 80 1009.4
20180219220712 82 51 13.0 15.0 0.00 0.00 0.00 81 1009.4
20180219220212 82 57 13.0 15.0 0.00 0.00 0.00 80 1009.4
20180219215712 82 65 10.0 15.0 0.00 0.00 0.00 81 1009.3
20180219215212 82 65 13.0 17.0 0.00 0.00 0.00 81 1009.3
20180219214712 82 59 15.0 17.0 0.00 0.00 0.00 81 1009.3
20180219214212 82 59 12.0 16.0 0.00 0.00 0.00 81 1009.3
20180219213712 82 65 12.0 15.0 0.00 0.00 0.00 82 1009.3
20180219213212 82 52 11.0 17.0 0.00 0.00 0.00 81 1009.3
20180219212712 81 55 12.0 17.0 0.00 0.00 0.00 81 1009.2
20180219212212 81 57 11.0 16.0 0.00 0.00 0.00 82 1009.2
20180219211712 81 47 12.0 17.0 0.00 0.00 0.00 82 1009.2
20180219211212 81 43 13.0 17.0 0.00 0.00 0.00 82 1009.1
20180219210712 81 59 12.0 16.0 0.00 0.00 0.00 82 1009.1
20180219210212 81 59 11.0 16.0 0.00 0.00 0.00 82 1009.1
20180219205712 81 47 14.0 16.0 0.00 0.00 0.00 82 1009.1
20180219205212 81 66 14.0 17.0 0.00 0.00 0.00 83 1009.1
20180219204712 81 58 14.0 17.0 0.00 0.00 0.00 82 1009.1
20180219204212 81 58 17.0 18.0 0.00 0.00 0.00 83 1008.8
20180219203712 81 49 13.0 18.0 0.00 0.00 0.00 83 1008.8
20180219203212 81 49 14.0 17.0 0.00 0.00 0.00 81 1008.8
20180219202712 81 46 14.0 17.0 0.00 0.00 0.00 82 1008.7
20180219202212 81 61 14.0 17.0 0.00 0.00 0.00 81 1008.7
20180219201712 81 53 13.0 16.0 0.00 0.00 0.00 82 1008.7
20180219201212 81 65 13.0 17.0 0.00 0.00 0.00 82 1008.7
20180219200712 81 52 13.0 17.0 0.00 0.00 0.00 81 1008.7
20180219200212 81 57 13.0 17.0 0.00 0.00 0.00 82 1008.7
20180219195712 81 53 11.0 16.0 0.00 0.00 0.00 83 1008.6